RH
57 56 55 55 55 55 55 55 54 54 54 54 54 54 54 54 55 55 56 57 58 58 57 57 56 56 56 57 58 59 61 62 63 65 67 69 72 74 77 78 81 83 84 84 83 82 81 81 81 82 83 83 83 84 85 84 83 82 80 76 74 74 77 86 91 93 92 93 96 99 100 100 100 100 100 99 99 99 99 99 100 100 100 100 99 99
57 56 56 56 56 56 55 55 54 54 54 54 54 55 55 55 55 56 57 58 59 59 59 58 58 57 57 57 58 60 61 62 64 66 68 71 74 76 78 80 82 83 84 85 83 82 82 83 83 83 83 83 83 83 83 82 82 82 80 77 74 75 80 84 87 89 90 93 97 100 100 100 100 100 100 100 99 99 99 99 99 100 100 100 100 99
58 57 57 57 56 56 55 55 54 54 54 54 55 56 56 57 57 57 58 60 61 63 64 63 62 61 59 59 60 62 63 65 67 68 70 73 75 78 80 81 83 84 83 84 83 82 82 82 82 82 82 82 82 82 82 81 81 81 79 77 75 75 77 80 83 86 90 96 98 99 99 100 100 100 100 100 100 99 99 99 99 99 99 100 100 99
60 59 58 57 57 56 56 55 55 55 55 56 57 58 58 58 59 60 60 62 64 66 68 67 66 65 64 63 63 64 66 67 69 70 71 74 76 78 80 81 82 82 82 82 81 80 80 80 80 81 82 82 82 82 81 82 82 82 80 78 76 74 75 78 83 89 95 99 99 98 98 99 100 100 100 100 100 100 99 99 99 99 99 100 100 99
61 60 59 58 57 57 56 56 56 57 58 60 61 61 61 61 62 63 64 65 67 68 69 69 69 68 67 66 66 66 67 68 70 71 73 75 77 78 80 80 81 80 78 78 78 78 78 79 80 81 82 82 82 82 82 84 84 83 80 78 76 75 76 82 88 94 98 99 99 98 98 99 100 100 100 100 100 100 100 100 99 99 99 100 100 99
62 60 60 59 58 57 57 57 59 61 63 64 64 64 63 64 65 66 68 68 68 68 68 69 69 69 69 68 68 68 68 69 71 73 75 76 77 77 77 77 77 77 75 76 76 77 78 79 80 82 83 83 83 83 83 84 83 81 78 76 75 76 81 89 95 98 98 98 99 98 98 98 99 100 100 100 100 100 100 100 100 99 99 100 100 100
63 62 61 60 60 60 60 60 62 65 66 66 65 65 64 64 65 66 68 68 68 68 68 67 68 68 69 70 70 69 69 71 72 74 74 74 74 73 73 73 74 74 74 74 75 76 78 80 81 82 83 84 83 83 84 82 81 79 77 75 76 80 87 94 96 95 95 96 97 98 98 98 99 99 99 100 100 100 100 100 100 100 99 100 100 100
65 63 62 61 60 60 61 63 65 66 67 66 65 64 63 64 64 64 65 67 68 69 70 71 70 70 71 72 72 72 71 71 71 71 70 69 69 69 69 69 70 70 72 73 74 76 78 80 81 82 82 83 82 82 83 83 82 80 77 77 80 83 87 89 90 91 91 92 95 97 98 99 99 99 99 99 100 100 100 100 100 100 100 100 100 100
67 65 63 62 62 62 64 65 66 66 66 66 65 65 65 65 65 65 65 66 67 69 72 74 74 73 72 72 72 72 71 70 68 67 65 65 66 66 66 66 66 67 69 71 72 74 76 77 79 80 81 82 82 83 83 83 82 80 79 81 83 84 84 84 85 87 89 89 91 94 97 98 98 98 98 99 99 100 100 100 100 100 100 100 100 100
70 68 67 67 66 67 69 69 68 67 66 67 68 70 71 72 71 70 68 66 66 68 70 73 73 71 69 68 68 68 67 66 66 65 66 67 67 65 64 63 64 65 67 69 71 73 74 75 77 79 80 81 82 82 82 82 81 81 81 82 82 82 81 81 82 84 85 86 88 91 94 96 97 97 96 97 98 99 100 100 100 100 100 100 100 100
72 71 69 70 70 71 74 73 71 70 70 73 75 78 79 78 77 77 76 72 68 66 65 64 63 63 64 65 66 67 67 66 66 66 66 65 63 61 60 61 63 64 66 68 70 72 73 74 76 77 78 79 79 79 79 80 81 81 81 80 80 80 80 81 82 83 84 85 86 88 90 92 93 94 94 96 98 99 99 100 100 99 99 99 100 100
74 72 71 71 71 72 73 72 71 72 75 78 79 79 77 77 77 76 77 73 68 64 61 60 60 60 62 65 67 69 70 69 68 65 62 59 57 57 57 59 61 62 64 65 67 69 70 72 74 74 75 75 75 75 77 78 79 80 81 81 81 80 80 81 82 83 83 83 83 84 85 86 90 93 93 96 98 98 99 99 100 99 99 99 99 100
77 75 73 73 73 72 72 73 74 75 76 74 72 70 68 67 67 69 71 69 66 64 63 61 61 62 63 66 69 71 72 71 67 63 58 56 55 56 57 58 59 60 61 62 63 64 66 68 69 71 73 73 74 74 76 76 78 79 80 81 81 80 80 81 82 82 83 82 82 82 84 84 88 91 92 94 95 96 98 99 99 99 99 99 99 99
76 75 75 76 76 76 76 75 73 70 66 64 63 63 64 64 66 68 70 68 66 64 64 63 63 63 64 65 67 69 69 67 62 58 55 54 55 56 57 59 59 60 60 61 61 62 63 64 66 67 70 72 73 74 76 77 78 79 81 82 82 82 81 81 82 83 84 83 83 84 85 86 88 90 91 92 94 95 98 98 97 97 97 99 99 99
74 78 83 83 80 75 70 66 63 62 61 62 63 64 65 66 67 68 68 67 66 65 65 65 64 63 62 61 61 61 61 60 57 55 54 54 55 56 57 58 59 59 59 60 60 61 62 64 65 67 68 70 71 73 75 77 79 80 81 83 84 84 83 84 85 87 87 87 86 87 87 88 89 89 91 92 93 95 97 98 95 93 92 97 99 99
76 80 80 74 70 65 62 61 62 62 61 62 64 66 67 68 70 70 69 69 68 68 68 67 65 62 57 54 53 54 56 57 57 56 55 55 55 55 56 57 57 58 58 58 59 60 62 64 65 66 67 68 70 72 75 77 80 82 82 84 85 87 88 90 90 90 90 91 91 90 90 89 88 88 90 91 93 95 96 96 94 91 89 93 96 99
78 78 75 72 68 66 63 61 60 60 60 61 63 65 67 70 73 74 73 73 72 71 69 66 65 62 56 52 51 52 55 58 58 58 56 55 54 54 55 57 58 59 59 59 59 60 62 63 64 65 65 68 70 73 75 77 80 82 84 86 87 88 89 89 90 90 90 91 91 91 89 88 87 87 87 89 92 95 97 95 92 89 86 89 93 98
78 76 74 72 69 65 61 59 59 59 61 63 65 67 68 71 74 75 75 74 73 72 69 66 64 62 58 55 52 53 56 60 61 61 60 58 57 56 57 59 60 60 60 61 62 62 62 63 65 66 67 69 72 74 76 79 82 84 85 87 87 87 88 88 89 90 90 90 91 91 90 89 87 86 85 87 90 94 98 95 91 87 83 86 90 95
78 75 72 69 66 64 62 62 62 63 66 70 72 73 74 74 74 74 73 73 72 70 68 65 63 60 57 56 55 56 60 66 69 69 68 65 63 61 59 60 61 62 62 61 61 61 61 62 64 66 68 70 73 75 77 80 82 84 86 87 88 88 88 88 88 88 89 89 90 90 90 89 88 87 85 87 90 93 96 95 91 86 81 84 88 91
80 74 70 67 66 67 67 66 66 68 73 78 81 81 80 77 74 72 71 70 69 68 67 67 66 64 62 61 62 65 69 74 76 75 73 68 65 62 61 61 62 62 60 60 59 59 60 61 62 65 67 69 72 75 77 80 82 85 86 86 88 89 89 87 87 87 87 87 88 89 90 90 89 87 86 86 89 92 94 94 90 85 79 80 84 89
78 73 69 68 71 73 72 71 72 76 81 85 87 86 83 79 75 72 70 70 70 71 71 72 72 71 69 70 70 71 72 74 74 72 68 65 63 61 59 59 60 60 60 59 58 59 59 61 63 65 67 69 71 74 76 78 81 83 84 85 86 86 87 86 86 85 85 84 86 88 90 90 89 88 86 87 88 90 92 92 89 85 80 82 84 87
77 74 73 74 77 79 80 82 83 84 85 88 90 88 84 81 78 75 73 74 75 76 76 76 76 76 75 75 74 73 72 74 73 71 69 65 62 59 57 58 59 60 61 60 60 60 60 62 64 65 67 69 71 73 75 76 78 79 81 82 83 84 85 85 85 85 85 86 87 89 90 91 91 90 90 89 90 91 92 90 89 86 81 83 84 85
81 80 82 84 87 89 90 89 88 88 89 90 90 88 86 85 84 83 81 81 80 78 76 75 75 75 75 74 73 72 72 73 74 74 74 70 65 61 58 60 62 63 63 62 62 62 63 64 65 66 68 69 71 72 73 74 76 77 78 79 81 83 84 85 86 86 86 88 89 91 91 91 91 91 90 89 89 89 90 88 86 83 82 84 84 85
86 88 91 93 93 93 92 91 90 90 90 90 89 87 87 86 86 85 85 84 82 80 78 76 74 72 70 68 67 67 68 72 75 77 78 74 69 64 61 62 64 64 63 63 63 64 66 67 68 68 69 70 70 70 71 73 74 75 76 78 81 83 86 87 87 87 87 90 91 92 91 92 92 91 90 87 87 87 88 85 83 83 84 86 86 86
81 83 86 87 88 88 89 88 88 89 90 89 87 85 84 84 84 84 84 84 83 81 78 76 73 70 66 65 64 63 63 65 68 72 74 71 67 63 60 60 62 63 63 63 63 65 67 68 68 68 67 67 67 68 69 71 73 74 76 80 83 86 88 89 89 88 90 90 92 92 92 92 92 92 91 88 88 88 87 84 83 83 86 88 88 87
82 85 86 85 85 85 85 85 85 86 86 85 83 82 82 84 85 84 82 81 80 79 77 75 72 67 63 61 60 59 58 59 61 65 68 66 64 61 58 58 60 62 63 63 64 65 66 66 65 65 64 64 64 65 67 70 73 76 79 82 84 86 88 88 88 89 90 91 92 92 93 93 93 92 92 90 89 88 86 84 83 85 88 90 90 89
85 85 84 84 84 83 82 82 82 82 82 81 80 81 83 86 87 84 79 75 75 76 75 72 69 65 60 59 58 57 56 57 60 62 65 66 64 61 58 58 59 61 63 63 63 63 64 64 64 63 63 63 64 65 68 71 74 76 78 80 81 83 85 87 88 89 89 90 91 92 92 92 92 92 93 92 90 89 86 84 84 86 90 91 91 90
85 84 83 82 81 81 81 81 81 80 79 78 78 79 82 87 87 83 76 74 75 76 74 70 67 64 60 57 56 55 55 57 58 60 63 65 65 62 59 59 60 61 62 62 62 62 63 63 63 63 64 64 65 66 68 71 73 74 76 78 80 82 85 87 89 90 89 89 90 91 91 90 90 91 92 91 91 90 88 86 87 88 90 90 90 88
80 79 78 78 78 78 79 79 79 78 78 77 78 79 82 86 86 83 78 78 78 77 73 69 65 63 61 59 58 57 57 57 58 59 61 64 64 62 60 60 60 61 62 62 62 61 61 61 61 62 63 64 65 66 67 69 71 73 75 77 80 83 85 87 89 91 91 91 92 92 92 91 90 90 90 90 90 90 90 88 89 90 89 89 87 85
70 70 71 73 74 74 75 76 76 77 77 76 76 77 79 83 84 83 82 83 82 80 76 71 67 65 63 62 60 59 57 56 57 59 62 64 63 62 60 60 61 61 62 63 63 62 59 58 58 59 60 62 63 65 65 67 69 71 73 74 76 78 80 82 85 87 89 90 92 93 94 95 94 92 91 91 90 90 89 89 90 90 88 85 84 82
67 69 70 71 72 73 73 74 74 75 74 74 73 74 75 79 82 83 86 87 87 85 81 76 72 68 66 65 63 61 58 56 56 59 63 65 64 62 61 61 61 62 63 66 66 65 60 57 56 57 58 60 62 63 64 65 67 68 69 70 72 73 76 79 82 84 85 88 90 91 92 93 94 94 93 92 92 90 88 88 88 88 86 83 81 80
69 71 72 72 72 72 73 73 74 74 73 72 71 70 70 74 78 83 87 88 89 88 86 82 78 74 70 68 66 64 62 59 60 62 66 68 66 65 64 63 63 62 63 66 68 67 63 60 58 58 59 60 61 62 63 64 65 66 68 69 71 73 75 78 81 83 84 86 87 87 88 90 91 92 92 92 92 91 90 88 87 86 85 82 80 78
71 72 72 72 72 72 73 74 74 73 73 71 69 67 66 68 71 76 80 83 87 89 89 86 82 77 72 70 68 66 64 63 64 66 70 72 71 68 65 65 64 64 63 65 67 67 66 64 62 61 61 61 61 62 62 63 65 66 68 70 71 73 74 78 81 83 84 84 85 85 86 88 89 90 91 91 91 91 91 90 89 87 86 82 79 77
71 72 71 71 72 72 73 73 73 73 73 72 69 67 65 65 66 70 74 79 85 88 88 87 84 80 75 71 69 67 65 65 66 69 73 76 75 72 69 67 66 65 65 65 65 65 64 63 62 61 60 60 60 61 61 62 64 65 67 70 72 73 74 77 80 82 83 84 84 85 85 86 87 89 90 90 90 91 91 91 91 90 88 84 81 78
70 70 70 70 71 71 72 73 74 74 74 72 70 67 65 65 66 68 72 77 82 86 88 89 87 84 82 77 73 70 68 67 69 72 77 81 80 77 73 70 68 67 68 66 65 64 63 61 61 61 60 60 60 60 60 61 63 65 67 70 72 74 75 77 80 81 82 83 84 84 84 84 85 85 86 87 88 88 89 90 90 90 90 88 85 81
69 69 69 69 70 71 73 74 74 75 75 73 71 69 67 66 66 68 72 76 80 84 88 89 89 88 87 84 81 77 74 73 75 78 81 84 84 83 79 74 71 70 70 68 66 65 64 62 61 61 61 61 60 59 59 60 62 64 67 69 71 74 75 77 79 81 82 82 82 82 83 83 83 82 81 82 83 85 86 86 87 89 91 90 88 85
69 69 69 69 70 71 73 74 75 76 76 74 73 71 69 68 67 67 70 74 78 82 86 89 90 90 90 89 88 85 83 82 82 84 86 88 89 88 84 78 75 74 74 71 69 67 66 65 64 62 61 61 60 59 59 60 62 63 65 67 69 72 74 76 78 80 80 81 81 81 81 82 82 80 79 80 81 82 84 84 85 87 88 88 88 87
68 68 69 69 70 71 74 75 76 76 77 77 76 74 72 69 69 68 69 73 76 80 84 86 88 89 89 89 90 90 90 89 89 90 90 91 91 90 88 83 79 77 77 76 74 71 69 69 67 65 63 60 59 60 60 62 63 64 65 67 69 71 72 74 77 79 80 81 81 81 81 82 82 81 80 79 78 78 80 81 82 84 85 87 88 87
69 70 70 70 71 72 74 76 77 78 79 79 78 76 73 70 68 67 67 70 73 76 80 84 86 87 87 89 90 90 91 91 92 92 92 92 92 91 90 87 83 80 79 80 79 77 74 72 70 67 65 63 62 61 61 63 64 65 66 68 69 70 72 74 76 79 81 82 83 83 84 84 83 82 81 79 77 75 75 74 75 79 82 86 86 85
71 72 71 71 71 73 75 77 79 80 80 80 79 77 73 69 65 64 63 65 67 69 73 79 83 86 88 89 90 90 90 91 92 92 93 92 92 92 91 89 86 83 82 82 81 80 79 75 72 68 66 65 64 63 63 64 65 66 68 69 69 70 71 73 75 78 81 83 85 86 86 87 86 84 81 79 76 74 70 67 67 70 75 78 78 77
73 73 72 72 72 73 76 78 80 81 81 80 79 76 72 68 65 63 61 61 61 63 66 70 75 78 81 84 86 87 88 89 90 91 91 92 92 92 92 91 90 88 87 84 82 80 80 77 74 71 69 67 66 66 65 65 66 67 69 70 70 71 72 73 75 77 79 81 83 85 86 88 88 86 83 80 77 74 69 65 62 62 67 69 68 67
74 74 73 73 74 76 78 81 82 82 81 79 77 75 73 70 67 64 62 60 59 59 60 63 66 70 73 76 77 79 82 83 85 86 88 89 91 91 92 92 91 90 89 86 83 80 78 77 75 73 70 69 69 68 67 66 67 68 69 70 71 72 72 73 75 77 78 80 82 84 86 87 88 87 85 82 79 75 71 67 63 61 62 63 63 62
74 74 74 75 77 78 80 83 83 82 80 78 77 75 74 72 69 66 64 62 60 59 58 59 61 64 68 71 73 75 77 80 82 84 85 88 90 91 92 93 92 92 90 88 85 81 77 77 76 74 72 71 71 70 69 68 67 68 69 70 71 72 72 72 73 76 78 81 83 85 87 88 88 87 87 85 82 77 74 70 67 64 62 62 62 61
76 76 78 80 81 81 81 82 82 80 79 78 77 76 75 73 71 69 66 63 61 59 58 57 57 59 62 66 68 71 72 74 77 81 83 85 88 90 92 92 93 93 92 91 87 82 77 76 74 73 73 73 73 72 70 69 68 68 69 70 72 72 73 73 73 74 77 79 82 84 87 89 90 91 92 90 85 80 75 71 67 65 63 62 62 61
77 78 80 80 79 78 79 78 79 79 78 78 77 76 75 74 73 71 68 65 62 60 58 57 56 57 59 61 63 66 69 71 74 77 80 83 86 89 91 92 93 93 93 93 91 87 82 78 75 73 73 74 75 74 72 70 69 69 69 71 72 73 74 74 75 75 76 78 79 82 85 88 90 91 91 90 86 81 76 73 69 66 63 63 63 62
78 78 78 77 76 76 76 77 78 79 78 78 77 76 75 75 74 72 68 65 62 60 58 56 56 56 56 57 59 62 65 68 70 73 76 80 83 86 88 90 92 93 94 93 93 91 89 85 81 77 76 76 75 74 72 71 71 70 70 71 72 73 73 74 76 77 77 78 79 81 83 86 88 89 88 89 87 83 76 74 70 67 64 63 63 63
79 79 78 77 77 77 77 77 78 78 78 76 75 75 75 75 74 72 70 66 63 60 57 56 55 54 54 54 55 57 60 64 68 72 74 78 81 84 86 87 90 92 93 94 94 93 93 91 88 86 83 79 76 73 71 71 71 71 71 71 72 73 73 74 76 77 78 79 80 81 83 85 87 88 87 88 88 86 79 74 71 69 67 66 66 65
82 81 80 80 79 78 77 77 77 77 77 76 75 75 75 75 75 73 71 67 63 60 58 56 55 54 53 53 53 55 58 62 67 71 75 77 80 82 83 84 86 88 90 91 93 93 93 93 92 91 89 84 80 75 71 70 71 72 72 72 73 74 73 73 75 77 79 80 82 83 86 87 88 88 87 86 85 84 81 75 71 69 68 70 70 69
82 82 81 81 81 80 78 77 76 76 76 76 76 75 76 76 75 73 70 67 63 60 58 56 55 54 53 53 53 54 56 60 64 68 73 76 79 80 82 83 84 85 85 86 86 87 88 90 90 91 90 87 84 79 75 73 72 73 73 74 74 74 73 73 74 76 79 81 83 85 88 89 88 88 88 85 83 82 82 77 72 69 69 72 74 74
82 82 82 82 81 80 78 77 76 77 77 77 77 77 76 76 74 72 70 67 64 61 58 57 55 54 54 53 54 54 56 58 60 64 67 72 77 80 81 82 82 82 81 81 80 80 81 81 82 84 86 87 86 84 81 78 76 75 74 75 75 75 74 74 75 76 79 80 83 86 90 90 90 89 89 86 83 82 81 78 74 71 69 72 76 79
82 82 83 82 82 80 79 78 77 78 78 78 79 78 77 76 74 72 70 68 65 63 59 57 56 55 54 54 54 54 55 56 58 61 64 69 74 78 82 82 82 82 79 77 75 75 74 74 73 73 74 80 84 87 86 82 80 78 77 76 76 75 75 75 75 76 79 81 83 85 89 91 91 90 90 87 84 82 80 77 73 69 67 70 75 80
Wind_Speed
27 27 27 27 28 29 30 30 31 31 32 32 31 31 31 31 31 32 32 32 32 32 33 33 34 35 35 36 36 36 36 36 36 36 36 36 36 36 36 35 35 35 35 35 35 36 36 37 38 39 39 39 39 38 38 38 38 39 39 40 40 39 37 36 35 35 35 37 39 40 39 37 36 36 36 35 34 34 34 27 14 20 24 23 22 24
27 27 27 28 28 29 30 31 31 30 31 31 31 31 31 31 32 32 32 32 32 32 33 33 34 34 35 35 35 35 36 36 36 35 35 35 35 35 35 35 35 35 35 35 35 36 36 37 38 38 39 39 38 38 37 37 37 38 39 39 39 38 37 35 34 34 34 36 38 39 37 36 36 36 36 35 35 35 35 32 21 13 18 21 22 23
27 27 27 28 28 28 30 31 31 30 30 31 31 31 31 32 32 32 32 32 32 32 32 32 33 33 34 34 35 35 35 35 35 35 34 34 34 34 35 35 35 35 35 36 36 36 36 37 37 37 38 38 37 37 36 36 37 37 38 38 38 37 36 35 34 33 34 35 36 37 37 36 36 36 37 36 36 36 36 34 29 22 15 14 17 21
27 27 27 27 28 28 30 31 31 30 30 30 31 31 32 32 32 32 32 31 31 31 31 32 32 32 33 33 33 33 33 33 33 33 34 34 34 34 35 35 36 36 36 36 35 35 35 36 36 36 36 36 36 36 36 35 36 37 37 37 37 36 36 34 34 33 33 33 33 34 35 36 36 36 36 36 36 36 35 33 31 29 23 15 10 16
27 27 27 27 28 29 30 30 30 29 29 29 29 30 31 30 30 31 31 30 30 30 30 30 30 30 31 31 31 31 32 33 33 33 34 34 34 35 35 36 36 35 35 34 34 34 34 34 34 34 35 35 35 35 35 35 35 36 37 36 36 35 35 34 34 33 32 31 30 31 33 34 34 34 35 35 35 35 34 32 31 30 28 20 9 8
28 28 28 28 29 29 30 30 29 27 27 27 28 29 29 29 29 29 29 29 29 29 29 28 28 29 29 30 30 32 33 33 34 34 34 34 35 35 35 34 34 33 33 32 32 32 32 32 33 33 34 34 34 34 34 34 34 35 36 36 35 34 34 34 34 33 31 30 29 29 31 32 33 33 33 34 34 35 34 32 31 30 29 25 15 2
29 29 29 29 30 30 30 29 28 27 26 26 27 27 27 28 28 27 27 28 28 28 28 29 29 29 29 30 31 32 33 33 34 34 33 33 33 32 32 31 31 30 30 30 30 31 31 32 32 33 34 34 34 33 33 33 33 34 35 35 34 33 33 33 33 32 31 30 29 29 30 31 32 32 33 34 34 34 34 32 31 30 30 27 19 8
29 30 30 30 31 31 30 29 28 26 26 26 26 27 27 27 27 27 28 27 27 27 27 27 28 28 28 28 29 30 31 31 31 30 30 29 29 28 28 28 28 29 29 30 30 31 31 32 33 33 33 33 33 33 32 32 32 33 34 34 34 33 32 32 32 31 31 30 29 29 29 29 30 30 32 33 34 34 34 33 32 31 31 28 23 16
30 31 31 31 31 30 29 29 28 26 26 26 26 26 26 26 26 26 26 26 25 25 24 25 26 27 27 27 28 28 29 29 29 28 28 27 26 26 27 27 28 29 30 30 30 31 31 32 32 32 32 32 32 31 31 31 31 32 33 33 33 32 32 31 31 31 30 30 29 29 28 28 29 29 30 31 32 33 33 33 32 32 32 30 26 20
30 30 30 30 30 28 26 26 27 26 25 25 25 25 24 24 24 24 25 25 24 23 22 23 24 26 28 28 28 28 28 28 28 28 27 27 27 27 28 29 29 29 29 30 30 30 30 31 31 31 31 30 30 30 30 29 30 30 31 32 32 32 31 31 30 30 30 29 29 29 29 29 29 29 29 30 31 32 32 32 32 32 32 30 27 22
28 28 28 27 27 26 24 23 24 24 23 23 23 23 22 22 21 21 20 22 23 24 24 24 25 27 28 28 28 27 27 26 26 26 26 26 26 26 27 27 28 28 28 28 28 28 28 29 29 29 29 29 28 28 28 28 28 28 29 30 31 31 31 31 30 29 29 29 29 28 28 29 29 29 29 29 30 30 31 31 32 32 32 30 27 23
24 25 25 25 25 24 23 23 22 22 20 19 19 19 19 19 20 20 20 22 24 26 27 27 28 28 27 27 27 27 25 25 25 25 24 24 23 24 24 24 24 24 24 24 24 24 25 25 26 26 27 27 27 27 26 26 26 26 27 28 29 30 31 31 30 29 28 28 28 28 27 27 28 28 28 28 29 29 30 30 31 31 31 30 27 24
22 23 24 24 23 22 20 20 18 18 17 17 17 17 19 22 23 23 23 25 26 27 27 28 28 28 27 26 25 25 24 24 24 24 24 23 23 22 21 21 21 20 20 20 20 21 21 22 23 24 25 25 26 26 25 25 24 24 24 25 26 28 30 31 30 29 28 28 28 27 26 26 26 27 27 27 28 28 28 29 29 30 30 29 27 24
23 23 23 21 19 18 17 16 16 16 18 20 21 22 24 25 26 25 24 25 26 27 26 26 27 28 26 25 24 24 24 24 24 24 24 23 22 21 20 20 20 19 19 19 20 20 20 21 22 23 24 24 24 24 24 23 22 21 21 22 24 26 28 30 30 29 29 28 28 27 26 25 25 25 25 26 26 27 27 27 28 28 28 28 26 24
23 21 17 14 14 16 17 19 20 21 22 23 23 24 25 26 25 24 24 24 25 25 25 26 27 27 26 25 23 22 22 23 23 23 22 22 21 20 19 19 19 19 19 19 20 20 20 21 21 22 23 23 24 23 23 22 21 20 20 20 22 24 26 28 30 29 29 28 28 27 26 25 24 25 25 24 25 25 25 26 26 26 27 27 26 24
22 19 16 16 17 20 22 23 22 23 24 24 23 23 24 24 23 23 24 23 24 24 23 22 22 21 22 23 22 20 20 21 21 21 21 20 20 19 18 18 19 19 19 19 20 20 21 21 21 22 23 23 24 24 24 23 21 20 20 20 21 22 24 27 29 29 29 28 28 27 25 25 24 24 24 24 23 24 24 24 25 25 26 26 26 25
22 20 19 19 19 22 24 24 24 24 25 25 25 24 24 23 22 22 23 22 22 22 20 18 12 9 12 20 21 19 17 18 19 19 19 20 20 19 18 18 19 20 20 20 21 21 21 21 22 22 23 23 24 24 24 23 22 21 20 20 20 21 23 25 27 28 29 28 28 27 25 24 24 24 25 24 23 23 23 23 23 24 24 25 26 25
21 21 20 19 20 22 25 25 25 25 25 25 25 26 25 24 23 23 23 23 22 20 19 18 14 9 6 10 16 19 17 18 19 19 20 20 20 19 19 18 19 20 21 21 21 21 21 22 22 22 23 24 25 25 25 25 24 22 21 20 20 21 22 24 26 27 28 28 28 27 25 24 24 24 24 24 23 23 22 23 23 23 23 24 25 25
22 22 21 21 22 24 25 25 25 24 23 22 23 24 24 25 25 24 23 22 22 21 21 18 17 16 14 16 19 21 19 19 19 19 19 19 20 20 19 19 19 20 21 21 21 21 21 22 22 23 23 24 26 26 27 26 25 23 22 21 20 20 21 23 24 26 27 28 28 27 26 24 23 23 24 24 23 23 23 22 22 22 22 23 24 24
23 23 23 23 23 24 24 25 25 24 22 21 22 24 24 25 26 25 24 23 23 23 23 21 20 19 20 21 22 21 19 18 17 18 19 20 21 21 20 19 19 20 21 21 21 21 20 21 21 22 23 24 25 26 26 26 25 23 22 21 20 20 21 22 24 25 26 27 28 27 26 25 24 23 23 23 23 23 23 22 22 22 22 22 23 24
24 25 25 24 23 22 23 25 24 23 22 24 25 25 25 25 25 25 24 24 24 24 23 21 20 20 21 21 21 20 19 17 17 18 19 20 21 21 20 19 19 20 20 21 20 20 20 20 20 21 21 22 23 24 25 25 24 23 22 21 20 20 21 22 23 25 26 27 27 27 27 25 24 23 23 23 23 22 22 22 21 21 22 22 23 23
24 25 25 24 23 23 24 24 24 25 25 25 24 23 23 23 24 24 25 24 23 22 21 21 21 22 22 22 22 22 20 19 19 19 19 17 18 20 20 18 18 19 19 19 19 19 19 19 19 20 21 21 22 23 24 25 25 24 23 22 21 21 21 22 23 24 25 26 27 27 27 26 24 23 23 23 23 22 22 21 21 21 22 22 22 22
24 24 24 24 23 23 24 25 25 25 25 23 23 23 22 24 25 25 25 25 24 24 25 26 26 26 25 25 25 24 23 21 20 20 18 12 14 18 19 18 17 18 19 19 18 18 18 18 19 19 20 21 22 23 24 25 26 26 25 24 22 21 21 21 22 23 24 25 26 26 26 25 24 23 23 22 22 22 22 21 21 21 22 22 22 22
22 22 23 23 23 24 24 25 25 25 24 24 24 24 25 26 27 28 28 27 27 26 27 27 26 26 25 25 25 24 22 20 19 18 16 13 14 17 19 18 17 18 19 19 18 18 18 18 18 19 19 20 21 23 24 26 27 27 26 24 22 21 20 19 20 21 22 24 24 25 25 25 24 23 23 22 22 22 22 21 21 21 22 23 23 21
21 22 23 24 25 26 27 28 28 28 27 27 27 27 27 28 29 29 28 26 25 24 24 23 22 21 21 22 21 20 19 17 15 15 15 13 15 18 19 18 17 17 18 19 18 18 17 18 18 18 19 20 21 23 24 25 26 26 26 24 22 20 18 18 18 20 21 22 23 24 24 24 24 23 23 23 22 22 22 21 21 21 23 23 23 21
23 24 26 27 28 29 30 31 31 30 29 28 27 27 27 27 28 27 25 23 21 20 20 17 15 15 18 18 17 16 16 14 14 13 14 13 14 16 18 17 17 17 18 18 18 17 17 18 18 19 19 20 21 22 23 24 25 25 24 23 21 19 18 17 18 19 20 21 22 23 23 23 23 23 23 23 23 22 21 21 21 21 22 23 23 22
24 26 27 28 29 29 29 29 28 28 27 27 26 25 26 26 25 24 22 20 19 17 16 11 9 11 14 13 14 15 15 14 13 13 13 13 14 15 17 17 16 16 17 17 17 17 17 18 19 19 20 20 20 20 21 22 22 23 23 23 21 20 18 17 17 18 19 21 22 22 22 23 23 23 23 23 23 22 22 21 21 21 22 22 22 21
23 24 25 26 26 26 26 26 26 25 25 25 25 24 24 24 22 20 20 20 19 17 16 11 9 9 8 9 13 17 17 16 15 15 14 14 13 13 16 16 16 15 16 16 17 18 18 18 19 19 19 18 18 18 18 18 19 20 21 21 21 19 18 16 16 16 18 19 20 21 22 22 22 23 23 23 23 23 22 21 21 21 21 21 20 19
21 21 22 22 22 23 23 23 23 23 23 23 23 23 22 21 20 19 20 20 19 17 16 14 12 10 9 13 16 18 17 17 17 16 14 13 12 13 15 15 14 14 14 14 15 16 16 16 16 15 15 15 14 14 15 15 16 17 18 18 18 18 17 15 14 15 16 17 19 20 20 21 22 22 23 23 23 22 22 21 20 20 20 19 18 17
19 19 19 19 19 20 20 21 21 21 22 22 22 21 20 19 18 19 20 20 19 17 16 16 15 14 13 12 12 11 12 14 14 12 11 10 10 12 14 13 14 13 13 11 9 9 10 12 12 11 11 11 11 12 12 13 14 14 15 16 16 16 16 15 14 14 14 16 17 18 19 20 20 21 22 22 22 22 21 21 20 19 19 18 17 16
18 18 17 18 18 18 19 19 19 20 20 21 20 20 19 17 17 18 18 19 19 18 18 17 16 16 14 8 5 4 4 10 11 9 8 8 9 11 13 13 14 14 13 10 5 3 5 6 9 10 9 10 11 12 13 13 14 14 14 14 14 15 15 14 13 13 14 15 16 18 19 19 20 20 21 21 21 21 21 20 20 19 18 17 17 16
17 16 16 17 17 18 18 19 19 19 19 19 18 18 17 16 16 16 17 18 18 18 18 18 17 17 16 12 8 6 6 11 12 11 9 9 11 13 14 14 14 14 14 12 9 6 4 3 6 11 11 12 13 13 14 14 14 13 13 13 13 13 14 13 13 13 13 13 15 17 18 19 20 21 21 21 21 21 21 20 20 19 18 17 17 16
16 16 16 17 18 18 18 18 18 18 18 18 18 17 17 17 16 16 17 18 18 18 18 18 18 17 17 17 16 15 15 16 16 14 13 12 12 13 15 14 15 15 14 14 14 12 8 6 9 13 14 14 13 13 13 13 13 13 12 12 12 12 12 12 12 12 11 12 13 14 16 18 20 21 21 21 21 21 21 21 21 20 19 18 17 16
16 16 17 18 18 18 18 18 18 18 18 18 18 17 17 17 17 17 17 17 17 18 18 18 18 18 17 17 17 17 19 18 17 15 13 13 13 14 15 15 15 14 14 13 13 13 12 13 13 13 13 14 14 13 13 12 12 12 12 11 11 11 11 10 10 10 10 10 10 12 13 15 17 19 20 21 21 21 21 21 21 21 21 19 18 16
16 17 17 18 17 17 17 18 18 18 18 17 17 17 17 17 17 17 17 17 18 18 18 19 19 19 18 17 16 17 18 18 17 15 14 14 15 15 15 15 15 14 13 12 12 11 10 13 14 13 12 12 13 13 12 12 11 11 10 10 10 10 10 9 9 9 10 9 10 10 11 12 14 15 17 18 19 20 20 21 21 21 22 21 19 17
16 17 17 17 17 17 17 17 17 17 17 17 17 17 18 18 17 17 17 17 18 19 19 20 20 20 20 20 19 20 20 20 19 17 16 16 17 17 16 16 16 15 13 13 13 11 9 11 14 15 13 10 9 11 12 11 10 10 10 10 10 10 9 9 9 9 9 10 10 10 10 11 12 13 14 15 16 17 19 20 21 21 22 22 22 20
16 16 16 16 16 16 16 17 17 17 17 17 18 18 18 18 18 18 18 18 19 20 20 20 21 21 21 22 22 23 23 23 21 20 20 20 20 19 18 18 18 17 15 15 14 13 12 10 10 11 11 8 7 8 11 11 10 10 10 10 10 10 10 9 9 9 9 10 10 10 10 11 11 12 13 13 14 15 17 19 20 21 22 22 23 23
15 16 16 16 16 16 16 17 17 17 17 18 18 18 19 19 19 20 20 20 20 21 21 21 21 21 22 23 24 25 26 26 26 25 24 24 22 22 21 21 20 19 17 17 16 16 14 9 8 7 7 9 11 12 13 13 12 11 11 10 11 11 11 10 10 9 9 9 10 10 11 11 11 12 12 12 13 13 15 16 18 20 21 22 22 23
15 15 16 16 16 16 16 16 17 18 18 18 18 19 19 19 19 20 19 19 19 20 20 20 21 21 22 23 24 25 26 26 27 27 27 26 24 23 22 21 21 20 19 18 17 17 16 12 9 7 6 7 10 13 15 14 12 12 12 12 12 12 11 10 9 9 9 9 9 9 10 10 11 11 12 13 13 14 14 15 16 18 19 19 20 21
14 15 16 17 17 17 17 17 17 18 18 19 19 19 19 19 19 19 18 18 18 18 19 19 19 20 21 21 22 22 23 24 25 25 25 25 25 23 22 21 21 20 19 18 18 18 17 16 15 15 14 10 10 13 14 14 14 13 13 12 11 11 10 10 9 9 9 9 9 9 9 9 10 11 12 13 14 14 15 15 15 16 16 16 16 17
15 15 16 17 17 18 18 17 17 18 18 18 18 18 18 17 18 18 18 18 17 17 17 17 18 18 18 19 19 20 21 22 22 22 23 23 24 23 22 22 21 20 19 19 19 18 18 18 18 18 17 16 16 16 16 16 16 15 14 13 12 13 13 12 12 11 10 10 9 9 9 9 10 11 12 13 14 15 15 15 15 14 15 16 16 16
15 16 17 17 17 18 18 18 18 18 18 17 17 17 17 16 17 17 18 18 18 17 17 17 17 18 18 18 18 18 18 19 19 20 21 22 22 22 22 22 21 21 20 19 19 19 19 19 19 18 18 17 15 15 15 16 16 15 15 14 14 15 15 14 12 11 10 10 9 9 9 9 9 10 11 12 14 15 15 15 15 15 15 16 16 17
15 16 17 17 18 18 18 17 16 16 16 16 16 16 16 16 16 17 18 18 18 18 18 17 17 17 18 18 18 17 17 17 17 18 19 20 21 21 22 22 21 20 19 19 19 19 20 19 19 19 18 17 16 15 15 16 16 15 15 15 14 13 10 11 11 10 9 9 9 9 9 9 9 9 10 11 12 13 15 16 16 17 16 16 17 17
16 16 17 16 16 17 17 16 15 15 16 16 16 16 16 16 16 16 17 17 18 18 18 17 17 17 17 17 17 17 16 16 15 16 16 18 19 20 20 21 21 21 20 19 18 18 18 19 19 19 18 17 16 16 16 16 15 15 15 14 14 13 11 11 11 11 11 10 10 9 9 8 8 9 9 10 11 13 14 15 16 17 17 17 17 18
15 16 16 16 16 16 15 15 16 16 15 16 16 16 16 16 16 16 16 17 17 18 17 17 17 16 15 15 16 16 16 15 15 14 15 15 16 17 18 19 19 20 20 20 20 19 18 17 17 17 17 16 16 16 16 16 16 15 15 14 14 14 15 15 14 13 12 12 11 10 9 8 8 8 9 10 11 13 14 15 16 17 18 18 18 19
15 15 15 15 15 15 16 16 16 16 15 15 15 16 16 15 15 15 16 16 17 17 17 17 16 14 14 14 15 16 15 15 15 14 14 14 14 15 16 17 18 18 19 20 20 20 20 19 18 17 16 15 16 17 17 17 16 15 15 14 14 14 15 15 14 14 13 13 12 12 11 10 9 9 9 10 11 12 14 15 16 17 18 18 19 20
14 15 15 15 15 15 16 16 16 15 15 15 15 15 15 15 15 15 15 16 16 17 17 17 16 15 15 15 15 15 15 15 15 15 15 14 14 14 15 16 16 17 18 19 19 20 21 21 20 18 17 15 15 16 17 17 16 15 15 14 14 13 14 14 14 14 13 13 13 12 11 10 10 9 10 10 10 11 13 15 17 18 19 19 19 20
14 15 15 15 15 15 16 16 15 15 15 15 16 15 15 15 15 15 15 16 16 16 16 16 15 15 15 16 16 16 15 15 15 15 15 15 14 14 14 14 15 15 16 17 18 19 20 21 22 21 20 18 16 15 16 17 16 16 15 14 14 13 14 14 14 13 13 13 13 13 12 11 10 9 9 9 10 11 13 15 17 19 20 20 20 21
14 14 15 15 15 15 15 15 15 15 15 15 16 16 16 15 15 15 15 15 15 15 15 15 15 15 15 15 16 16 16 16 16 15 15 14 14 14 14 14 14 14 15 16 17 18 19 21 22 23 23 22 20 19 18 18 17 16 16 15 14 14 14 14 14 13 13 13 14 14 13 12 11 10 9 9 10 12 13 15 17 19 21 21 21 21
14 14 14 14 14 14 15 15 15 15 15 15 16 16 16 16 15 15 14 14 14 14 15 15 15 15 15 15 16 16 16 16 16 15 15 14 14 13 13 14 13 13 14 14 14 15 15 16 18 21 24 25 24 23 21 19 18 17 16 16 15 15 15 14 14 13 13 13 13 14 14 13 13 12 11 11 11 12 13 15 17 19 21 22 22 21
14 14 14 14 14 15 15 15 15 15 15 15 15 16 16 16 16 15 15 14 14 15 15 15 15 15 15 16 16 17 16 16 16 16 16 15 14 14 13 13 13 12 12 10 10 9 8 8 9 13 18 22 25 26 23 21 19 17 15 16 16 15 15 15 14 14 14 13 13 13 14 14 14 13 13 12 11 11 12 14 17 19 21 23 23 22
Wind_Direction
284 285 286 285 284 283 282 281 280 280 280 280 280 280 281 281 281 280 278 277 275 275 275 275 276 276 277 277 278 278 279 280 281 281 282 282 282 283 283 284 284 284 284 284 284 284 284 284 284 284 284 285 285 286 286 287 288 288 289 290 291 292 294 296 297 298 299 299 298 299 304 311 316 318 321 324 330 337 342 337 292 226 215 216 217 214
285 285 285 284 283 283 282 282 281 279 279 280 280 281 281 281 281 281 280 278 276 275 274 275 275 276 276 277 277 278 279 280 280 281 281 281 282 282 283 283 284 284 284 284 284 284 283 283 283 283 283 284 284 285 285 286 287 287 288 288 289 291 293 295 296 296 296 295 296 299 305 311 314 316 319 321 326 334 340 341 329 276 232 226 221 213
286 286 285 285 284 282 282 283 282 281 279 279 280 281 281 281 281 280 280 278 277 275 274 274 274 275 276 277 277 278 278 279 279 279 280 280 280 281 282 283 284 285 285 285 284 284 283 282 282 282 282 283 283 284 284 285 286 286 286 287 288 290 292 293 293 293 292 293 296 300 305 308 311 313 314 316 322 329 333 335 335 328 300 258 229 210
285 285 285 285 284 283 282 282 283 282 280 280 280 280 280 280 279 279 278 278 277 276 275 274 274 275 275 276 276 276 277 277 278 278 278 279 280 281 283 284 285 286 286 286 285 284 283 281 281 281 281 281 282 283 284 284 285 285 285 286 287 288 290 290 291 291 291 293 297 301 303 306 309 311 313 314 318 323 326 328 331 331 329 309 249 204
283 283 284 285 285 284 283 283 282 282 281 280 280 280 279 278 277 277 277 277 277 277 276 275 274 274 274 274 274 275 276 277 277 277 278 278 280 282 283 285 285 286 285 285 284 283 282 281 280 280 280 280 281 282 283 284 284 284 284 285 286 287 288 289 290 291 294 296 299 302 303 305 308 311 312 312 312 315 319 322 326 328 328 324 302 200
282 283 283 284 284 284 284 284 283 282 281 280 279 279 278 277 276 275 275 276 277 277 277 276 275 274 274 273 274 275 276 277 277 277 278 279 280 282 283 283 284 283 283 283 282 281 280 280 279 279 279 280 280 281 282 283 283 283 283 284 284 285 287 289 291 293 295 297 299 302 303 304 306 307 308 307 308 311 312 316 320 324 325 325 323 289
282 282 283 283 282 282 282 282 282 281 280 280 280 279 278 277 276 275 274 274 276 277 278 278 277 276 274 273 274 275 276 277 277 278 279 280 280 281 281 281 281 281 281 281 281 280 280 280 280 279 279 280 280 281 281 281 281 282 282 282 283 285 286 289 291 293 295 296 297 300 302 303 304 304 304 304 305 306 308 312 316 320 322 323 327 342
282 283 282 282 282 282 282 280 279 279 278 278 279 280 280 279 278 277 277 276 275 275 277 278 278 277 275 274 274 274 275 276 278 278 279 279 279 279 279 280 281 282 282 281 281 281 280 280 280 280 279 279 279 280 280 280 280 280 281 281 282 284 285 287 289 291 293 295 295 297 300 302 303 303 303 302 301 301 304 307 312 316 319 322 327 340
280 282 282 281 281 282 282 281 279 277 276 276 275 277 278 279 279 280 280 279 276 274 273 274 277 278 278 277 277 277 276 277 277 278 278 277 277 279 281 283 284 284 283 282 282 281 281 280 280 279 279 279 279 279 279 279 279 279 280 281 282 283 283 284 285 288 290 292 293 293 297 300 301 301 301 300 299 301 302 305 309 314 318 322 327 338
277 278 280 280 279 279 279 280 280 279 276 273 272 272 273 276 278 280 281 280 279 277 275 275 278 283 284 284 282 280 279 278 278 277 276 276 278 280 283 284 284 284 283 282 281 281 280 280 279 279 279 279 278 278 278 278 278 279 280 281 282 282 282 281 282 284 286 287 288 289 292 295 296 297 297 297 299 301 301 303 307 311 316 322 328 337
275 277 278 278 278 277 275 276 278 279 276 273 270 270 269 271 273 276 278 280 282 284 284 284 285 287 288 287 285 282 280 279 278 278 277 278 280 282 284 284 283 282 281 280 280 279 279 279 278 278 278 278 278 278 277 277 278 279 280 281 282 282 281 280 280 281 282 283 284 286 288 290 292 293 294 295 297 299 300 302 305 309 315 321 327 334
275 276 278 278 279 279 278 276 276 276 274 273 274 276 276 274 276 278 280 284 287 290 291 291 290 289 286 285 284 283 281 279 279 279 280 281 283 284 284 283 282 281 280 279 279 278 278 277 278 278 278 278 278 277 277 277 278 278 280 281 282 282 282 281 281 281 281 281 282 283 285 287 289 290 291 293 295 297 299 301 304 308 313 319 325 330
275 277 278 279 279 278 276 275 275 276 278 281 284 288 289 289 289 287 286 287 288 290 291 292 292 289 286 283 282 281 280 280 280 280 282 283 283 284 283 282 281 280 280 280 280 279 278 278 278 278 278 278 278 277 277 277 277 278 279 281 282 283 283 283 283 283 282 282 282 283 284 285 287 288 290 292 295 297 299 300 302 305 311 316 321 325
280 280 279 276 273 272 273 277 282 288 291 293 293 293 293 294 294 292 289 287 288 289 290 290 290 289 287 284 281 280 280 280 280 281 281 281 281 281 280 280 279 279 280 280 279 279 279 280 280 280 279 278 277 277 276 276 277 277 278 280 281 283 283 284 285 285 285 284 284 285 286 286 287 288 289 291 293 295 297 298 300 303 308 312 317 320
284 283 280 277 278 281 287 292 295 296 296 296 295 294 294 294 293 291 290 289 290 291 291 290 289 288 287 285 283 281 279 279 279 279 279 278 278 277 277 277 277 278 278 278 278 279 279 279 279 279 279 278 277 276 276 276 276 277 277 279 280 282 283 284 285 286 286 286 287 287 288 289 289 289 290 291 292 293 294 295 297 300 304 308 312 315
285 285 286 289 292 294 296 297 297 296 296 296 296 296 296 295 293 291 291 291 291 292 291 291 290 289 288 287 285 282 279 278 276 276 277 277 277 276 276 276 277 277 277 277 278 279 280 279 278 278 278 277 277 276 276 276 277 277 277 277 278 280 282 283 285 286 287 287 288 288 289 290 290 290 290 291 291 291 292 293 295 298 302 305 308 310
285 287 290 293 295 296 297 297 297 296 297 297 297 296 294 293 291 290 290 290 291 291 290 290 289 289 291 291 289 285 281 278 276 276 276 276 277 277 276 276 276 277 277 277 277 278 278 278 277 277 277 276 276 277 277 277 277 277 277 277 278 279 280 282 284 285 286 287 288 288 289 290 290 291 291 291 291 291 291 291 293 297 300 303 304 306
287 290 293 295 296 296 297 297 297 297 297 297 297 296 294 292 290 289 289 289 289 289 289 288 287 285 287 290 289 287 284 280 278 278 278 278 278 278 278 276 275 275 276 276 276 276 277 276 275 274 275 275 276 277 277 277 277 277 277 277 277 277 279 280 282 284 285 286 287 287 288 288 289 289 290 291 292 292 292 292 293 296 299 300 301 301
290 293 295 296 296 296 295 295 296 297 297 297 297 297 295 293 292 291 290 288 287 286 285 284 283 281 281 282 284 285 285 282 280 279 279 279 280 280 279 276 274 274 275 276 276 276 276 275 274 273 273 274 275 276 277 276 276 276 276 276 276 277 277 279 280 282 283 284 285 285 286 286 287 287 288 290 291 292 292 292 293 295 297 297 297 297
291 292 293 293 294 293 292 292 293 294 296 296 296 296 294 294 293 292 290 289 286 284 282 280 277 277 278 280 281 283 285 284 282 281 281 281 281 281 280 277 275 275 275 276 276 276 275 275 274 274 273 274 274 275 275 275 275 275 274 275 275 276 277 277 278 279 280 281 282 283 284 284 284 285 286 287 289 290 290 291 293 294 295 294 293 292
289 289 288 289 289 289 289 290 291 293 295 296 296 295 294 294 294 293 292 290 288 285 283 280 278 279 281 282 283 285 286 285 284 282 282 282 281 280 279 278 276 275 276 276 276 276 276 275 275 274 273 273 273 274 274 275 274 274 274 274 275 275 276 276 276 276 276 277 279 280 281 282 282 282 283 284 285 286 287 288 290 292 293 291 289 287
283 284 285 285 284 283 285 287 290 292 294 294 294 294 294 295 295 295 294 294 292 290 289 287 286 286 287 286 285 285 285 282 280 280 281 281 280 280 280 279 277 276 275 276 277 277 276 275 274 274 273 273 273 274 274 275 275 275 274 274 275 275 274 273 273 272 273 273 275 276 278 279 279 279 279 280 282 283 283 284 287 289 289 288 285 283
276 278 280 281 281 281 284 288 291 292 292 292 291 292 294 295 296 296 296 296 294 292 291 289 288 287 285 284 283 282 281 278 276 275 276 276 278 279 281 280 278 277 276 277 278 279 277 275 274 274 273 273 273 274 274 275 275 276 276 275 274 273 272 270 269 268 268 270 271 272 274 275 275 276 276 276 277 278 279 280 282 284 285 284 283 281
274 276 279 281 283 284 287 289 290 291 293 294 294 295 296 296 296 295 294 293 291 290 288 287 286 284 282 280 279 278 277 274 272 270 271 272 276 279 281 282 281 279 279 279 280 280 278 276 275 274 274 274 274 274 274 275 276 276 276 276 274 271 268 266 264 264 264 265 267 268 270 271 272 272 272 272 273 274 274 276 278 280 281 281 281 280
281 282 284 285 287 288 289 290 292 293 295 297 298 299 300 299 298 296 294 291 289 287 286 284 283 281 281 281 280 278 277 274 270 267 268 271 276 279 281 282 282 281 281 282 282 281 280 278 277 277 276 276 275 275 275 275 276 276 276 275 273 270 266 263 261 260 261 261 263 264 266 267 268 269 269 269 269 270 270 271 273 275 277 279 279 279
285 285 285 287 289 290 291 292 294 295 296 298 299 300 301 302 301 298 296 292 290 288 287 284 282 282 284 284 283 282 282 280 274 269 268 272 277 280 281 281 281 281 282 283 283 282 281 280 279 279 278 277 277 276 275 275 276 276 276 276 274 271 268 264 261 258 258 259 260 261 262 264 265 266 266 266 266 266 266 267 268 271 274 277 279 280
285 285 286 288 290 291 292 293 294 295 295 296 297 299 301 303 302 300 297 296 295 294 292 289 286 287 288 287 285 285 286 285 281 275 272 274 277 279 280 282 282 282 283 284 284 283 282 281 280 279 278 277 276 275 275 275 275 276 277 278 277 275 271 265 260 257 256 256 257 258 259 260 262 263 263 264 263 263 262 263 264 267 271 275 278 280
286 287 288 289 290 291 292 292 293 294 295 296 297 299 301 302 301 299 298 298 299 297 293 289 288 290 289 287 286 286 285 284 281 277 275 274 274 276 279 282 283 284 285 286 286 284 282 279 277 276 274 273 273 273 274 275 276 277 278 279 279 277 273 266 260 255 253 253 254 255 256 257 258 259 260 261 261 261 260 260 262 265 269 272 274 276
291 291 290 291 291 292 292 293 294 294 295 296 297 298 299 298 296 295 295 297 296 293 288 284 283 284 284 286 286 285 283 280 277 275 272 269 269 273 278 281 282 283 286 288 289 287 282 278 274 272 271 271 272 273 275 277 278 279 280 280 280 278 275 269 262 256 252 251 252 253 254 255 255 256 257 258 258 259 259 258 260 262 265 266 268 269
298 297 295 295 294 295 295 295 295 294 295 296 296 296 295 291 289 289 290 291 290 287 284 283 282 282 283 285 285 283 280 278 277 274 270 267 269 274 279 282 283 284 287 290 291 289 286 282 279 276 275 277 279 280 281 282 282 281 281 281 281 280 277 272 265 258 253 252 252 253 253 254 254 254 254 255 256 256 257 256 256 257 258 260 261 262
303 301 299 298 298 299 299 298 297 296 296 296 295 293 291 286 284 285 285 288 287 286 285 284 283 283 282 283 283 281 280 283 284 284 280 274 274 278 282 284 285 285 286 287 289 296 293 291 288 286 285 287 288 287 285 284 282 281 281 282 282 281 279 275 269 262 256 252 252 252 252 253 253 253 252 253 253 253 253 253 252 252 252 253 254 255
302 301 299 300 301 301 300 299 298 297 297 297 295 293 291 287 284 283 284 286 287 286 285 285 284 283 281 279 277 277 279 283 286 288 286 280 278 279 281 282 283 283 283 281 280 283 292 297 293 291 290 289 288 286 283 281 279 279 279 279 279 280 280 277 273 267 260 254 251 250 250 251 251 251 250 250 250 250 249 248 247 247 247 248 249 249
300 300 300 300 301 300 299 299 299 299 298 298 297 296 294 292 288 287 287 288 286 285 284 284 284 283 281 279 277 276 277 279 282 283 282 278 277 278 279 279 280 281 282 279 276 276 277 279 287 289 288 286 284 282 280 278 277 275 275 275 275 276 278 278 275 271 265 257 251 248 248 248 248 248 248 247 247 247 247 245 244 242 242 244 245 247
300 300 300 300 300 299 299 299 300 300 300 300 300 299 297 295 292 290 290 289 286 283 282 281 281 281 281 280 279 277 277 277 279 281 280 276 274 277 278 278 278 280 281 280 278 276 275 276 280 285 287 287 284 281 279 278 276 274 272 270 270 271 273 273 273 272 269 262 255 249 247 246 245 245 245 244 244 244 244 243 242 240 239 240 241 244
301 302 301 301 300 300 300 301 302 302 302 302 302 302 300 297 294 291 290 289 287 284 282 279 277 277 277 278 278 278 278 278 279 281 280 277 276 277 279 278 277 278 280 280 280 279 279 279 280 283 286 288 287 284 281 278 276 275 272 269 266 266 267 266 268 269 269 266 261 254 249 247 245 244 243 242 241 240 241 241 241 239 238 237 237 239
302 302 301 302 302 301 301 302 303 303 303 304 304 304 302 299 295 292 290 289 289 288 284 281 278 276 274 273 274 275 277 278 280 280 279 276 276 277 278 277 277 277 277 278 278 278 280 282 282 283 284 285 287 286 284 282 280 279 277 273 269 267 265 263 263 264 265 264 261 257 254 252 250 249 247 244 241 239 238 238 239 238 238 236 235 235
301 301 301 302 303 302 302 303 303 304 305 306 306 306 304 300 297 294 291 289 290 290 288 284 280 276 273 271 270 271 273 276 277 277 275 274 273 274 274 274 275 274 273 274 275 277 279 281 282 282 282 280 280 284 286 287 287 284 281 278 277 275 272 269 266 263 262 261 260 258 257 256 255 255 254 253 249 244 241 238 237 236 236 235 235 234
301 301 301 302 303 303 303 303 304 305 306 306 306 305 303 300 297 294 293 290 289 289 289 287 283 279 275 272 270 270 271 272 273 272 272 271 269 268 269 270 271 270 268 268 270 273 276 277 279 280 279 279 280 282 285 288 288 286 284 284 284 282 279 276 272 268 264 262 261 259 258 257 256 257 257 257 254 249 243 238 235 234 233 233 234 234
299 300 301 303 304 303 302 302 302 304 305 305 304 303 302 300 298 295 293 289 288 287 287 285 283 281 278 275 273 271 271 270 270 269 268 267 265 264 264 265 267 267 266 264 264 265 267 269 272 276 279 281 282 283 284 285 286 288 291 292 289 285 281 279 277 275 271 267 265 263 261 259 256 254 254 254 251 248 244 238 234 229 227 227 229 232
298 298 300 302 302 302 300 299 300 301 303 303 303 303 303 302 301 299 296 293 290 290 288 286 283 281 280 278 276 275 273 272 271 270 268 265 263 261 260 261 263 265 265 263 261 259 259 261 264 268 270 274 279 282 283 284 284 287 291 293 290 286 285 286 286 284 279 275 270 267 265 262 258 254 251 249 248 246 243 239 234 228 223 220 222 225
297 298 299 300 301 300 299 298 298 300 302 303 304 304 305 305 306 306 304 302 299 297 295 295 293 290 287 283 280 278 276 275 275 274 271 269 266 263 261 261 262 264 265 264 261 258 256 258 261 264 266 269 273 277 279 279 281 283 285 284 284 285 287 288 286 283 280 275 270 267 266 263 260 256 252 249 248 246 244 242 238 232 225 222 222 222
295 296 297 298 299 298 297 297 297 299 301 302 302 303 304 305 307 308 308 307 306 304 303 303 302 300 297 293 289 285 280 278 277 276 275 273 271 267 264 263 263 263 264 264 263 260 258 258 259 261 263 265 269 273 275 276 277 278 277 278 281 285 287 285 282 279 275 272 268 264 262 260 258 256 253 251 250 248 247 246 243 238 231 226 225 225
292 293 294 295 296 296 297 296 296 298 301 302 302 302 303 304 306 307 308 307 307 307 306 306 304 303 300 298 295 292 288 283 280 279 278 276 274 270 266 264 262 261 261 261 262 262 261 259 258 259 261 262 265 267 270 273 274 274 273 274 277 282 284 285 285 284 280 274 269 263 259 257 257 257 256 253 251 249 248 246 244 240 234 229 226 226
289 290 291 292 294 296 299 297 297 299 300 301 301 302 303 304 305 306 306 306 306 307 308 307 306 305 302 299 299 298 297 293 288 283 281 280 278 276 273 268 264 260 257 256 258 261 262 261 259 258 259 259 260 261 264 267 269 270 270 269 269 269 271 277 283 286 285 281 276 270 266 264 264 265 264 259 253 249 246 244 242 238 234 230 227 226
288 289 290 293 297 299 299 300 300 299 300 300 300 301 303 304 305 304 304 304 305 307 308 308 308 306 303 301 301 302 302 301 297 291 286 283 282 280 279 276 271 266 260 255 254 255 258 260 261 261 260 258 256 256 259 261 264 266 265 264 263 263 264 268 273 277 279 279 279 278 277 278 278 275 269 262 254 248 244 242 240 237 234 229 226 225
288 290 292 296 298 300 301 302 301 300 300 299 300 302 304 305 305 304 304 305 307 308 308 308 307 305 302 303 304 305 305 304 303 299 295 290 287 285 283 280 276 271 266 261 257 254 253 254 257 260 261 259 257 255 255 256 259 261 261 260 259 260 261 263 264 265 267 270 272 274 277 279 279 275 269 265 259 252 246 243 240 237 233 229 226 224
286 289 291 294 296 298 300 302 302 301 301 302 303 304 305 306 306 305 306 307 307 308 309 309 307 305 302 303 305 306 306 305 304 303 300 296 291 289 287 284 280 275 270 266 262 258 255 253 253 254 255 257 257 257 256 254 254 255 256 256 255 255 256 256 256 255 256 258 260 263 266 268 269 267 264 264 263 259 251 244 240 237 234 231 228 226
284 286 289 291 294 297 300 302 302 302 302 304 306 307 307 307 307 306 306 306 307 308 308 308 307 306 304 304 304 305 305 304 303 302 300 298 295 292 290 288 286 283 278 273 269 264 260 257 254 251 250 251 254 256 256 255 252 251 251 251 251 250 252 252 251 249 248 249 250 251 252 253 254 255 256 256 254 252 248 242 237 234 232 231 229 227
282 284 286 288 291 294 298 301 302 303 303 305 307 309 309 309 308 307 306 306 306 306 306 305 306 305 305 304 305 306 306 305 303 302 300 298 297 295 293 291 289 287 284 280 276 271 266 261 256 251 247 246 248 251 254 254 252 250 249 248 247 247 248 249 248 245 243 243 244 243 241 241 242 244 246 244 241 240 239 237 234 231 229 228 228 228
281 282 283 286 288 291 295 298 300 302 302 304 306 308 309 310 309 308 306 305 305 304 304 304 304 304 304 304 305 306 307 306 306 304 303 300 298 296 294 293 291 290 288 284 280 275 270 265 259 252 246 242 241 243 247 249 250 248 247 245 244 244 245 246 246 243 240 239 239 238 235 234 235 235 236 236 236 235 234 234 233 230 227 226 227 228
279 280 281 283 286 289 292 295 297 299 301 303 305 306 308 309 309 309 308 307 306 305 304 304 303 303 303 304 305 306 307 307 306 304 304 302 300 296 292 290 289 288 288 287 284 280 274 269 264 257 250 241 236 235 237 241 244 244 243 242 241 241 242 243 243 241 237 236 235 234 230 229 228 228 228 229 231 231 231 230 230 227 225 224 226 228